Wetterdaten: Samstag, 07.05.2016
Datum Zeit Auen-Temp. Temp gefhlt Luftfeuchte Luftdruck Regen Wind Richtung Richtung Sonnenschein Taupunkt Windben
07.05.2016 00:00 7,4 C 6,9 C 70 % 1014,0 hPa 0,0 mm 0,0 km/h (0 Bft) O-SO 112 0 min 2,3 C 0,0 km/h (0 Bft)
07.05.2016 00:05 7,5 C 6,9 C 71 % 1014,0 hPa 0,0 mm 0,0 km/h (0 Bft) O-NO 67 0 min 2,6 C 0,0 km/h (0 Bft)
07.05.2016 00:10 6,8 C 6,4 C 74 % 1014,0 hPa 0,0 mm 0,0 km/h (0 Bft) O-NO 67 0 min 2,5 C 0,0 km/h (0 Bft)
07.05.2016 00:15 6,5 C 6,1 C 73 % 1013,8 hPa 0,0 mm 0,0 km/h (0 Bft) O-NO 67 0 min 2,0 C 0,0 km/h (0 Bft)
07.05.2016 00:20 6,5 C 6,1 C 73 % 1013,8 hPa 0,0 mm 0,0 km/h (0 Bft) O 90 0 min 2,0 C 0,0 km/h (0 Bft)
07.05.2016 00:22 6,4 C 6,0 C 74 % 1013,8 hPa 0,0 mm 0,0 km/h (0 Bft) N-NO 22 0 min 2,1 C 0,0 km/h (0 Bft)
07.05.2016 00:24 6,4 C 6,0 C 74 % 1013,8 hPa 0,0 mm 0,0 km/h (0 Bft) N-NO 22 0 min 2,1 C 0,0 km/h (0 Bft)
07.05.2016 00:25 6,4 C 6,0 C 74 % 1013,8 hPa 0,0 mm 0,0 km/h (0 Bft) N-NO 22 0 min 2,1 C 0,0 km/h (0 Bft)
07.05.2016 00:30 6,3 C 6,0 C 74 % 1013,8 hPa 0,0 mm 0,0 km/h (0 Bft) O-NO 67 0 min 2,0 C 0,0 km/h (0 Bft)
07.05.2016 00:35 6,7 C 6,2 C 75 % 1013,9 hPa 0,0 mm 0,0 km/h (0 Bft) O-NO 67 0 min 2,6 C 0,0 km/h (0 Bft)
07.05.2016 00:40 6,5 C 6,1 C 75 % 1013,9 hPa 0,0 mm 0,0 km/h (0 Bft) NO 45 0 min 2,4 C 0,0 km/h (0 Bft)
07.05.2016 00:45 6,4 C 6,0 C 76 % 1013,9 hPa 0,0 mm 0,3 km/h (0 Bft) SO 135 0 min 2,5 C 0,0 km/h (0 Bft)
07.05.2016 00:50 6,4 C 6,0 C 76 % 1013,9 hPa 0,0 mm 0,3 km/h (0 Bft) O-NO 67 0 min 2,5 C 0,0 km/h (0 Bft)
07.05.2016 00:55 6,3 C 6,0 C 76 % 1013,9 hPa 0,0 mm 0,0 km/h (0 Bft) O-NO 67 0 min 2,4 C 0,0 km/h (0 Bft)
07.05.2016 01:00 6,2 C 5,9 C 77 % 1013,9 hPa 0,0 mm 0,0 km/h (0 Bft) N-NO 22 0 min 2,5 C 0,0 km/h (0 Bft)
07.05.2016 01:05 6,0 C 5,8 C 76 % 1013,9 hPa 0,0 mm 0,0 km/h (0 Bft) O-NO 67 0 min 2,1 C 0,0 km/h (0 Bft)
07.05.2016 01:10 5,9 C 5,6 C 78 % 1013,9 hPa 0,0 mm 0,0 km/h (0 Bft) O-NO 67 0 min 2,4 C 0,0 km/h (0 Bft)
07.05.2016 01:15 5,9 C 5,6 C 77 % 1014,0 hPa 0,0 mm 0,0 km/h (0 Bft) NW 315 0 min 2,2 C 0,0 km/h (0 Bft)
07.05.2016 01:20 6,0 C 5,6 C 78 % 1014,0 hPa 0,0 mm 0,0 km/h (0 Bft) O 90 0 min 2,5 C 0,0 km/h (0 Bft)
07.05.2016 01:25 5,9 C 5,5 C 79 % 1014,0 hPa 0,0 mm 0,0 km/h (0 Bft) O-SO 112 0 min 2,5 C 0,0 km/h (0 Bft)
07.05.2016 01:30 5,8 C 5,5 C 79 % 1014,0 hPa 0,0 mm 0,0 km/h (0 Bft) O-NO 67 0 min 2,4 C 0,0 km/h (0 Bft)
07.05.2016 01:35 5,4 C 5,1 C 78 % 1013,8 hPa 0,0 mm 0,0 km/h (0 Bft) SO 135 0 min 1,9 C 0,0 km/h (0 Bft)
07.05.2016 01:40 5,9 C 5,4 C 79 % 1013,8 hPa 0,0 mm 0,0 km/h (0 Bft) S 180 0 min 2,5 C 0,0 km/h (0 Bft)
07.05.2016 01:45 6,0 C 5,5 C 79 % 1013,8 hPa 0,0 mm 0,0 km/h (0 Bft) O-SO 112 0 min 2,6 C 0,0 km/h (0 Bft)
07.05.2016 01:50 5,9 C 5,5 C 80 % 1013,8 hPa 0,0 mm 0,0 km/h (0 Bft) O-SO 112 0 min 2,7 C 0,0 km/h (0 Bft)
07.05.2016 01:55 5,6 C 5,2 C 79 % 1013,7 hPa 0,0 mm 0,0 km/h (0 Bft) O 90 0 min 2,3 C 0,0 km/h (0 Bft)
07.05.2016 02:00 5,9 C 5,4 C 79 % 1013,7 hPa 0,0 mm 0,0 km/h (0 Bft) O-SO 112 0 min 2,5 C 0,0 km/h (0 Bft)
07.05.2016 02:05 5,4 C 5,0 C 79 % 1013,7 hPa 0,0 mm 0,0 km/h (0 Bft) O-SO 112 0 min 2,1 C 0,0 km/h (0 Bft)
07.05.2016 02:10 5,5 C 5,0 C 79 % 1013,7 hPa 0,0 mm 0,0 km/h (0 Bft) O 90 0 min 2,2 C 0,0 km/h (0 Bft)
07.05.2016 02:15 5,7 C 5,2 C 79 % 1013,6 hPa 0,0 mm 0,0 km/h (0 Bft) NO 45 0 min 2,3 C 0,0 km/h (0 Bft)
07.05.2016 02:20 5,8 C 5,2 C 79 % 1013,6 hPa 0,0 mm 0,0 km/h (0 Bft) O 90 0 min 2,4 C 0,0 km/h (0 Bft)
07.05.2016 02:25 5,4 C 4,9 C 79 % 1013,6 hPa 0,0 mm 0,0 km/h (0 Bft) O-SO 112 0 min 2,1 C 0,0 km/h (0 Bft)
07.05.2016 02:30 5,4 C 4,9 C 79 % 1013,6 hPa 0,0 mm 0,0 km/h (0 Bft) O-SO 112 0 min 2,1 C 0,0 km/h (0 Bft)
07.05.2016 02:35 5,2 C 4,8 C 79 % 1013,3 hPa 0,0 mm 0,0 km/h (0 Bft) O 90 0 min 1,9 C 0,0 km/h (0 Bft)
07.05.2016 02:40 5,1 C 4,8 C 79 % 1013,3 hPa 0,0 mm 0,0 km/h (0 Bft) O-NO 67 0 min 1,8 C 0,0 km/h (0 Bft)
07.05.2016 02:45 4,9 C 4,7 C 79 % 1013,3 hPa 0,0 mm 0,0 km/h (0 Bft) O-NO 67 0 min 1,6 C 0,0 km/h (0 Bft)
07.05.2016 02:50 5,1 C 4,9 C 79 % 1013,3 hPa 0,0 mm 0,0 km/h (0 Bft) O-NO 67 0 min 1,8 C 0,0 km/h (0 Bft)
07.05.2016 02:55 5,9 C 5,4 C 80 % 1013,2 hPa 0,0 mm 0,0 km/h (0 Bft) O-NO 67 0 min 2,7 C 0,0 km/h (0 Bft)
07.05.2016 03:00 5,8 C 5,4 C 79 % 1013,2 hPa 0,0 mm 0,0 km/h (0 Bft) O 90 0 min 2,4 C 0,0 km/h (0 Bft)
07.05.2016 03:05 5,5 C 5,2 C 79 % 1013,2 hPa 0,0 mm 0,0 km/h (0 Bft) O-NO 67 0 min 2,2 C 0,0 km/h (0 Bft)
07.05.2016 03:10 5,0 C 4,8 C 78 % 1013,2 hPa 0,0 mm 0,0 km/h (0 Bft) O-NO 67 0 min 1,5 C 0,0 km/h (0 Bft)
07.05.2016 03:15 5,0 C 4,7 C 79 % 1013,3 hPa 0,0 mm 0,0 km/h (0 Bft) O 90 0 min 1,7 C 0,0 km/h (0 Bft)
07.05.2016 03:20 4,9 C 4,6 C 79 % 1013,3 hPa 0,0 mm 0,0 km/h (0 Bft) N-NO 22 0 min 1,6 C 0,0 km/h (0 Bft)
07.05.2016 03:22 4,7 C 4,4 C 79 % 1013,3 hPa 0,0 mm 0,0 km/h (0 Bft) NW 315 0 min 1,4 C 0,0 km/h (0 Bft)
07.05.2016 03:25 4,7 C 4,4 C 79 % 1013,3 hPa 0,0 mm 0,0 km/h (0 Bft) NW 315 0 min 1,4 C 0,0 km/h (0 Bft)
07.05.2016 03:30 4,8 C 4,4 C 79 % 1013,3 hPa 0,0 mm 0,3 km/h (0 Bft) O-SO 112 0 min 1,5 C 0,0 km/h (0 Bft)
07.05.2016 03:35 4,8 C 4,5 C 80 % 1013,2 hPa 0,0 mm 0,3 km/h (0 Bft) O-NO 67 0 min 1,6 C 0,0 km/h (0 Bft)
07.05.2016 03:40 5,1 C 4,7 C 81 % 1013,2 hPa 0,0 mm 0,0 km/h (0 Bft) S 180 0 min 2,1 C 0,0 km/h (0 Bft)
07.05.2016 03:45 5,2 C 4,7 C 81 % 1013,2 hPa 0,0 mm 0,0 km/h (0 Bft) SO 135 0 min 2,2 C 0,0 km/h (0 Bft)
07.05.2016 03:50 4,7 C 4,4 C 81 % 1013,2 hPa 0,0 mm 0,0 km/h (0 Bft) N-NO 22 0 min 1,7 C 0,0 km/h (0 Bft)
07.05.2016 03:55 4,2 C 3,9 C 80 % 1013,1 hPa 0,0 mm 0,0 km/h (0 Bft) S 180 0 min 1,1 C 0,0 km/h (0 Bft)
07.05.2016 04:00 4,6 C 4,1 C 81 % 1013,1 hPa 0,0 mm 0,0 km/h (0 Bft) O 90 0 min 1,6 C 0,0 km/h (0 Bft)
07.05.2016 04:05 4,3 C 4,0 C 81 % 1013,1 hPa 0,0 mm 0,0 km/h (0 Bft) NO 45 0 min 1,3 C 0,0 km/h (0 Bft)
07.05.2016 04:10 4,0 C 3,8 C 81 % 1013,1 hPa 0,0 mm 0,0 km/h (0 Bft) O-NO 67 0 min 1,0 C 0,0 km/h (0 Bft)
07.05.2016 04:15 4,3 C 3,9 C 82 % 1013,1 hPa 0,0 mm 0,0 km/h (0 Bft) O-NO 67 0 min 1,5 C 0,0 km/h (0 Bft)
07.05.2016 04:20 4,0 C 3,7 C 81 % 1013,1 hPa 0,0 mm 0,0 km/h (0 Bft) N-NO 22 0 min 1,0 C 0,0 km/h (0 Bft)
07.05.2016 04:25 4,2 C 3,8 C 82 % 1013,1 hPa 0,0 mm 0,0 km/h (0 Bft) O-NO 67 0 min 1,4 C 0,0 km/h (0 Bft)
07.05.2016 04:30 4,5 C 4,0 C 83 % 1013,1 hPa 0,0 mm 0,0 km/h (0 Bft) N-NO 22 0 min 1,9 C 0,0 km/h (0 Bft)
07.05.2016 04:35 4,8 C 4,2 C 83 % 1013,0 hPa 0,0 mm 0,0 km/h (0 Bft) O 90 0 min 2,2 C 0,0 km/h (0 Bft)
07.05.2016 04:40 4,5 C 4,0 C 82 % 1013,0 hPa 0,0 mm 0,0 km/h (0 Bft) O-SO 112 0 min 1,7 C 0,0 km/h (0 Bft)
07.05.2016 04:45 4,9 C 4,4 C 83 % 1013,0 hPa 0,0 mm 0,0 km/h (0 Bft) W 270 0 min 2,3 C 0,0 km/h (0 Bft)
07.05.2016 04:50 4,4 C 4,0 C 82 % 1013,0 hPa 0,0 mm 0,0 km/h (0 Bft) O-SO 112 0 min 1,6 C 0,0 km/h (0 Bft)
07.05.2016 04:55 4,0 C 3,7 C 81 % 1013,1 hPa 0,0 mm 0,0 km/h (0 Bft) W 270 0 min 1,0 C 0,0 km/h (0 Bft)
07.05.2016 05:00 4,2 C 3,8 C 81 % 1013,1 hPa 0,0 mm 0,0 km/h (0 Bft) W-SW 247 0 min 1,2 C 0,0 km/h (0 Bft)
07.05.2016 05:05 4,6 C 4,1 C 82 % 1013,1 hPa 0,0 mm 0,0 km/h (0 Bft) O-SO 112 0 min 1,8 C 0,0 km/h (0 Bft)
07.05.2016 05:10 4,1 C 3,8 C 81 % 1013,1 hPa 0,0 mm 0,0 km/h (0 Bft) N-NO 22 0 min 1,1 C 0,0 km/h (0 Bft)
07.05.2016 05:15 4,0 C 3,7 C 81 % 1012,9 hPa 0,0 mm 0,3 km/h (0 Bft) O-NO 67 0 min 1,0 C 0,0 km/h (0 Bft)
07.05.2016 05:20 4,1 C 3,8 C 82 % 1012,9 hPa 0,0 mm 0,3 km/h (0 Bft) O 90 0 min 1,3 C 0,0 km/h (0 Bft)
07.05.2016 05:25 3,9 C 3,6 C 82 % 1012,9 hPa 0,0 mm 0,0 km/h (0 Bft) N-NO 22 0 min 1,1 C 0,0 km/h (0 Bft)
07.05.2016 05:30 3,6 C 3,4 C 82 % 1012,9 hPa 0,0 mm 0,0 km/h (0 Bft) NO 45 0 min 0,8 C 0,0 km/h (0 Bft)
07.05.2016 05:35 3,3 C 3,1 C 81 % 1012,9 hPa 0,0 mm 0,0 km/h (0 Bft) W-NW 292 0 min 0,4 C 0,0 km/h (0 Bft)
07.05.2016 05:40 3,5 C 3,2 C 81 % 1012,9 hPa 0,0 mm 0,0 km/h (0 Bft) SO 135 0 min 0,6 C 0,0 km/h (0 Bft)
07.05.2016 05:45 3,6 C 3,3 C 81 % 1012,9 hPa 0,0 mm 0,0 km/h (0 Bft) N-NO 22 0 min 0,7 C 0,0 km/h (0 Bft)
07.05.2016 05:50 3,4 C 3,2 C 81 % 1012,9 hPa 0,0 mm 0,6 km/h (0 Bft) O-NO 67 0 min 0,5 C 0,0 km/h (0 Bft)
07.05.2016 05:55 3,7 C 3,4 C 82 % 1012,9 hPa 0,0 mm 0,6 km/h (0 Bft) N-NO 22 0 min 0,9 C 0,0 km/h (0 Bft)
07.05.2016 06:00 3,5 C 3,2 C 81 % 1012,9 hPa 0,0 mm 0,0 km/h (0 Bft) NW 315 0 min 0,6 C 0,0 km/h (0 Bft)
07.05.2016 06:05 4,1 C 3,6 C 82 % 1012,9 hPa 0,0 mm 0,3 km/h (0 Bft) SO 135 0 min 1,3 C 0,0 km/h (0 Bft)
07.05.2016 06:10 4,7 C 4,3 C 77 % 1012,9 hPa 0,0 mm 0,3 km/h (0 Bft) S-SO 157 0 min 1,0 C 0,0 km/h (0 Bft)
07.05.2016 06:15 4,0 C 4,0 C 80 % 1013,1 hPa 0,0 mm 0,3 km/h (0 Bft) SW 225 0 min 0,9 C 0,0 km/h (0 Bft)
07.05.2016 06:20 4,7 C 4,6 C 77 % 1013,1 hPa 0,0 mm 0,0 km/h (0 Bft) O 90 0 min 1,0 C 0,0 km/h (0 Bft)
07.05.2016 06:22 4,3 C 4,8 C 79 % 1013,1 hPa 0,0 mm 0,0 km/h (0 Bft) W-SW 247 0 min 1,0 C 0,0 km/h (0 Bft)
07.05.2016 06:26 4,3 C 4,8 C 79 % 1013,1 hPa 0,0 mm 0,0 km/h (0 Bft) W-SW 247 0 min 1,0 C 0,0 km/h (0 Bft)
07.05.2016 06:30 4,3 C 6,0 C 80 % 1013,1 hPa 0,0 mm 0,3 km/h (0 Bft) SW 225 0 min 1,2 C 3,0 km/h (1 Bft)
07.05.2016 06:35 4,4 C 8,0 C 76 % 1013,1 hPa 0,0 mm 0,6 km/h (0 Bft) N-NO 22 5 min 0,5 C 3,9 km/h (1 Bft)
07.05.2016 06:40 4,4 C 8,6 C 76 % 1013,1 hPa 0,0 mm 0,6 km/h (0 Bft) S-SO 157 5 min 0,5 C 4,2 km/h (1 Bft)
07.05.2016 06:45 5,3 C 10,0 C 77 % 1013,1 hPa 0,0 mm 1,5 km/h (1 Bft) S 180 5 min 1,6 C 3,9 km/h (1 Bft)
07.05.2016 06:50 5,5 C 11,0 C 76 % 1013,1 hPa 0,0 mm 1,2 km/h (1 Bft) N-NW 337 5 min 1,6 C 0,0 km/h (0 Bft)
07.05.2016 06:55 5,6 C 12,2 C 76 % 1013,4 hPa 0,0 mm 0,3 km/h (0 Bft) O-NO 67 5 min 1,7 C 0,0 km/h (0 Bft)
07.05.2016 07:00 6,1 C 12,6 C 77 % 1013,4 hPa 0,0 mm 0,3 km/h (0 Bft) S-SO 157 5 min 2,4 C 3,9 km/h (1 Bft)
07.05.2016 07:05 7,0 C 13,2 C 73 % 1013,4 hPa 0,0 mm 1,8 km/h (1 Bft) S 180 5 min 2,5 C 6,3 km/h (2 Bft)
07.05.2016 07:10 7,4 C 14,1 C 73 % 1013,4 hPa 0,0 mm 1,8 km/h (1 Bft) NW 315 5 min 2,9 C 0,0 km/h (0 Bft)
07.05.2016 07:15 6,9 C 15,4 C 74 % 1013,4 hPa 0,0 mm 0,3 km/h (0 Bft) NW 315 5 min 2,6 C 0,0 km/h (0 Bft)
07.05.2016 07:20 6,8 C 15,7 C 74 % 1013,4 hPa 0,0 mm 0,0 km/h (0 Bft) O-SO 112 5 min 2,5 C 0,0 km/h (0 Bft)
07.05.2016 07:25 7,0 C 17,1 C 72 % 1013,4 hPa 0,0 mm 0,0 km/h (0 Bft) O-SO 112 5 min 2,3 C 0,0 km/h (0 Bft)
07.05.2016 07:30 7,5 C 17,8 C 73 % 1013,4 hPa 0,0 mm 0,0 km/h (0 Bft) O-NO 67 5 min 3,0 C 0,0 km/h (0 Bft)
07.05.2016 07:36 8,9 C 17,8 C 72 % 1013,5 hPa 0,0 mm 0,0 km/h (0 Bft) NW 315 5 min 4,1 C 0,0 km/h (0 Bft)
07.05.2016 07:40 9,7 C 18,4 C 71 % 1013,5 hPa 0,0 mm 0,0 km/h (0 Bft) W-NW 292 4 min 4,7 C 0,0 km/h (0 Bft)
07.05.2016 07:45 10,9 C 19,4 C 69 % 1013,5 hPa 0,0 mm 0,0 km/h (0 Bft) O 90 5 min 5,4 C 0,0 km/h (0 Bft)
07.05.2016 07:50 10,9 C 20,3 C 68 % 1013,5 hPa 0,0 mm 0,0 km/h (0 Bft) O 90 5 min 5,2 C 0,0 km/h (0 Bft)
07.05.2016 07:55 11,8 C 21,3 C 68 % 1013,6 hPa 0,0 mm 0,0 km/h (0 Bft) N-NO 22 5 min 6,1 C 0,0 km/h (0 Bft)
07.05.2016 08:00 11,8 C 21,9 C 66 % 1013,6 hPa 0,0 mm 0,0 km/h (0 Bft) NO 45 5 min 5,7 C 0,0 km/h (0 Bft)
07.05.2016 08:05 12,3 C 22,4 C 65 % 1013,6 hPa 0,0 mm 0,0 km/h (0 Bft) NO 45 5 min 5,9 C 0,0 km/h (0 Bft)
07.05.2016 08:10 12,7 C 22,8 C 65 % 1013,6 hPa 0,0 mm 0,0 km/h (0 Bft) O-NO 67 5 min 6,3 C 0,0 km/h (0 Bft)
07.05.2016 08:15 13,1 C 23,3 C 63 % 1013,8 hPa 0,0 mm 0,0 km/h (0 Bft) NO 45 5 min 6,2 C 0,0 km/h (0 Bft)
07.05.2016 08:20 14,2 C 24,1 C 61 % 1013,8 hPa 0,0 mm 0,0 km/h (0 Bft) NW 315 5 min 6,8 C 0,0 km/h (0 Bft)
07.05.2016 08:25 14,8 C 25,1 C 59 % 1013,8 hPa 0,0 mm 0,0 km/h (0 Bft) NO 45 5 min 6,9 C 0,0 km/h (0 Bft)
07.05.2016 08:30 15,4 C 25,4 C 59 % 1013,8 hPa 0,0 mm 0,0 km/h (0 Bft) O 90 5 min 7,4 C 0,0 km/h (0 Bft)
07.05.2016 08:35 15,7 C 25,2 C 57 % 1013,7 hPa 0,0 mm 0,0 km/h (0 Bft) W 270 5 min 7,2 C 0,0 km/h (0 Bft)
07.05.2016 08:40 16,0 C 25,3 C 57 % 1013,7 hPa 0,0 mm 0,0 km/h (0 Bft) N-NO 22 5 min 7,5 C 0,0 km/h (0 Bft)
07.05.2016 08:45 16,7 C 25,0 C 56 % 1013,7 hPa 0,0 mm 0,6 km/h (0 Bft) O-NO 67 5 min 7,9 C 0,0 km/h (0 Bft)
07.05.2016 08:50 16,8 C 24,6 C 55 % 1013,7 hPa 0,0 mm 1,8 km/h (1 Bft) N-NO 22 5 min 7,7 C 6,9 km/h (2 Bft)
07.05.2016 08:55 16,9 C 23,7 C 52 % 1013,6 hPa 0,0 mm 4,8 km/h (1 Bft) O-NO 67 5 min 7,0 C 12,2 km/h (2 Bft)
07.05.2016 09:00 17,0 C 23,3 C 51 % 1013,6 hPa 0,0 mm 5,7 km/h (1 Bft) N-NO 22 5 min 6,8 C 4,8 km/h (1 Bft)
07.05.2016 09:05 17,3 C 23,3 C 50 % 1013,6 hPa 0,0 mm 5,7 km/h (1 Bft) NO 45 5 min 6,8 C 12,8 km/h (3 Bft)
07.05.2016 09:10 17,4 C 23,5 C 50 % 1013,6 hPa 0,0 mm 5,1 km/h (1 Bft) W-SW 247 5 min 6,9 C 9,8 km/h (2 Bft)
07.05.2016 09:15 17,5 C 23,7 C 48 % 1013,6 hPa 0,0 mm 5,4 km/h (1 Bft) NO 45 5 min 6,4 C 8,3 km/h (2 Bft)
07.05.2016 09:20 17,6 C 23,4 C 45 % 1013,6 hPa 0,0 mm 6,3 km/h (2 Bft) O 90 5 min 5,5 C 9,5 km/h (2 Bft)
07.05.2016 09:25 17,7 C 23,3 C 46 % 1013,6 hPa 0,0 mm 6,9 km/h (2 Bft) NW 315 5 min 5,9 C 7,2 km/h (2 Bft)
07.05.2016 09:27 17,7 C 23,3 C 46 % 1013,6 hPa 0,0 mm 6,9 km/h (2 Bft) NW 315 2 min 5,9 C 7,2 km/h (2 Bft)
07.05.2016 09:30 18,0 C 23,6 C 46 % 1013,6 hPa 0,0 mm 6,0 km/h (2 Bft) N-NO 22 3 min 6,2 C 5,1 km/h (1 Bft)
07.05.2016 09:35 18,3 C 24,0 C 46 % 1013,8 hPa 0,0 mm 5,7 km/h (1 Bft) NW 315 5 min 6,5 C 10,7 km/h (2 Bft)
07.05.2016 09:40 18,3 C 24,2 C 46 % 1013,8 hPa 0,0 mm 6,3 km/h (2 Bft) O-NO 67 5 min 6,5 C 8,3 km/h (2 Bft)
07.05.2016 09:45 18,4 C 24,2 C 45 % 1013,8 hPa 0,0 mm 5,7 km/h (1 Bft) N-NO 22 5 min 6,3 C 3,6 km/h (1 Bft)
07.05.2016 09:50 18,7 C 24,6 C 45 % 1013,8 hPa 0,0 mm 5,7 km/h (1 Bft) O-NO 67 5 min 6,5 C 9,8 km/h (2 Bft)
07.05.2016 09:55 18,7 C 24,5 C 45 % 1013,9 hPa 0,0 mm 4,8 km/h (1 Bft) NO 45 5 min 6,5 C 16,1 km/h (3 Bft)
07.05.2016 10:00 18,9 C 24,8 C 44 % 1013,9 hPa 0,0 mm 4,5 km/h (1 Bft) O-NO 67 5 min 6,4 C 8,0 km/h (2 Bft)
07.05.2016 10:05 18,8 C 24,4 C 44 % 1013,9 hPa 0,0 mm 6,0 km/h (2 Bft) N 360 5 min 6,3 C 11,9 km/h (2 Bft)
07.05.2016 10:10 18,7 C 24,0 C 43 % 1013,9 hPa 0,0 mm 8,0 km/h (2 Bft) O-NO 67 5 min 5,9 C 10,7 km/h (2 Bft)
07.05.2016 10:15 18,9 C 23,8 C 42 % 1013,9 hPa 0,0 mm 8,9 km/h (2 Bft) O-NO 67 5 min 5,7 C 17,9 km/h (3 Bft)
07.05.2016 10:20 18,9 C 24,0 C 43 % 1013,9 hPa 0,0 mm 8,3 km/h (2 Bft) NO 45 5 min 6,0 C 12,8 km/h (3 Bft)
07.05.2016 10:25 18,9 C 24,1 C 43 % 1013,9 hPa 0,0 mm 7,7 km/h (2 Bft) O-NO 67 5 min 6,0 C 13,1 km/h (3 Bft)
07.05.2016 10:30 19,0 C 23,9 C 43 % 1013,9 hPa 0,0 mm 8,9 km/h (2 Bft) NO 45 5 min 6,1 C 14,9 km/h (3 Bft)
07.05.2016 10:35 19,1 C 24,0 C 44 % 1014,4 hPa 0,0 mm 9,8 km/h (2 Bft) N 360 5 min 6,6 C 13,7 km/h (3 Bft)
07.05.2016 10:40 19,2 C 23,9 C 43 % 1014,4 hPa 0,0 mm 10,4 km/h (2 Bft) N-NO 22 5 min 6,3 C 19,4 km/h (3 Bft)
07.05.2016 10:45 19,3 C 23,8 C 43 % 1014,4 hPa 0,0 mm 11,9 km/h (2 Bft) NO 45 5 min 6,4 C 20,0 km/h (4 Bft)
07.05.2016 10:50 19,2 C 23,6 C 41 % 1014,4 hPa 0,0 mm 11,9 km/h (2 Bft) N-NO 22 5 min 5,6 C 15,8 km/h (3 Bft)
07.05.2016 10:55 19,2 C 23,7 C 42 % 1014,1 hPa 0,0 mm 10,4 km/h (2 Bft) N-NO 22 5 min 6,0 C 12,8 km/h (3 Bft)
07.05.2016 11:00 19,4 C 23,8 C 41 % 1014,1 hPa 0,0 mm 10,1 km/h (2 Bft) N-NO 22 5 min 5,8 C 14,6 km/h (3 Bft)
07.05.2016 11:05 19,6 C 23,7 C 40 % 1014,1 hPa 0,0 mm 10,7 km/h (2 Bft) O 90 5 min 5,6 C 11,9 km/h (2 Bft)
07.05.2016 11:10 19,6 C 23,7 C 39 % 1014,1 hPa 0,0 mm 10,4 km/h (2 Bft) O-NO 67 5 min 5,3 C 14,6 km/h (3 Bft)
07.05.2016 11:15 19,5 C 23,6 C 38 % 1014,4 hPa 0,0 mm 10,4 km/h (2 Bft) N-NO 22 5 min 4,8 C 18,8 km/h (3 Bft)
07.05.2016 11:20 19,8 C 23,8 C 39 % 1014,4 hPa 0,0 mm 10,4 km/h (2 Bft) N-NO 22 5 min 5,4 C 6,6 km/h (2 Bft)
07.05.2016 11:25 19,8 C 24,0 C 39 % 1014,4 hPa 0,0 mm 9,5 km/h (2 Bft) N-NW 337 5 min 5,4 C 8,6 km/h (2 Bft)
07.05.2016 11:30 20,0 C 24,3 C 39 % 1014,4 hPa 0,0 mm 8,6 km/h (2 Bft) NO 45 5 min 5,6 C 18,2 km/h (3 Bft)
07.05.2016 11:35 20,1 C 24,2 C 38 % 1014,3 hPa 0,0 mm 10,7 km/h (2 Bft) N-NO 22 5 min 5,3 C 26,5 km/h (4 Bft)
07.05.2016 11:40 20,1 C 23,9 C 38 % 1014,3 hPa 0,0 mm 13,4 km/h (3 Bft) O-NO 67 5 min 5,3 C 13,7 km/h (3 Bft)
07.05.2016 11:45 20,1 C 23,7 C 37 % 1014,3 hPa 0,0 mm 14,3 km/h (3 Bft) NW 315 5 min 5,0 C 33,4 km/h (5 Bft)
07.05.2016 11:50 20,2 C 23,6 C 38 % 1014,3 hPa 0,0 mm 13,1 km/h (3 Bft) N-NO 22 0 min 5,4 C 8,9 km/h (2 Bft)
07.05.2016 11:55 20,3 C 23,9 C 38 % 1014,2 hPa 0,0 mm 11,0 km/h (2 Bft) O 90 5 min 5,5 C 15,2 km/h (3 Bft)
07.05.2016 12:00 20,1 C 23,6 C 36 % 1014,2 hPa 0,0 mm 12,2 km/h (2 Bft) N-NO 22 5 min 4,6 C 26,2 km/h (4 Bft)
07.05.2016 12:05 19,9 C 23,2 C 37 % 1014,2 hPa 0,0 mm 14,9 km/h (3 Bft) NO 45 0 min 4,8 C 23,5 km/h (4 Bft)
07.05.2016 12:10 19,9 C 23,3 C 37 % 1014,2 hPa 0,0 mm 15,8 km/h (3 Bft) NO 45 0 min 4,8 C 21,8 km/h (4 Bft)
07.05.2016 12:15 20,2 C 23,6 C 36 % 1014,2 hPa 0,0 mm 13,1 km/h (3 Bft) NO 45 0 min 4,7 C 16,4 km/h (3 Bft)
07.05.2016 12:20 20,4 C 23,8 C 37 % 1014,2 hPa 0,0 mm 12,5 km/h (3 Bft) N 360 0 min 5,2 C 7,2 km/h (2 Bft)
07.05.2016 12:25 20,7 C 24,3 C 36 % 1014,2 hPa 0,0 mm 11,9 km/h (2 Bft) NO 45 0 min 5,1 C 33,4 km/h (5 Bft)
07.05.2016 12:27 20,6 C 24,2 C 35 % 1014,2 hPa 0,0 mm 12,5 km/h (3 Bft) O-NO 67 2 min 4,6 C 26,5 km/h (4 Bft)
07.05.2016 12:28 20,6 C 24,2 C 35 % 1014,2 hPa 0,0 mm 12,5 km/h (3 Bft) O-NO 67 1 min 4,6 C 26,5 km/h (4 Bft)
07.05.2016 12:30 20,6 C 24,2 C 35 % 1014,2 hPa 0,0 mm 12,5 km/h (3 Bft) O-NO 67 2 min 4,6 C 26,5 km/h (4 Bft)
07.05.2016 12:35 20,5 C 23,9 C 36 % 1014,0 hPa 0,0 mm 14,0 km/h (3 Bft) NO 45 0 min 4,9 C 24,4 km/h (4 Bft)
07.05.2016 12:40 20,3 C 23,8 C 35 % 1014,0 hPa 0,0 mm 14,9 km/h (3 Bft) N-NO 22 0 min 4,3 C 19,4 km/h (3 Bft)
07.05.2016 12:45 20,4 C 23,8 C 36 % 1014,0 hPa 0,0 mm 13,1 km/h (3 Bft) NO 45 0 min 4,8 C 17,3 km/h (3 Bft)
07.05.2016 12:50 20,4 C 23,8 C 36 % 1014,0 hPa 0,0 mm 11,3 km/h (2 Bft) SW 225 0 min 4,8 C 14,9 km/h (3 Bft)
07.05.2016 12:55 20,4 C 23,0 C 35 % 1013,8 hPa 0,0 mm 13,4 km/h (3 Bft) NO 45 0 min 4,4 C 38,1 km/h (5 Bft)
07.05.2016 13:00 20,5 C 22,7 C 36 % 1013,8 hPa 0,0 mm 12,8 km/h (3 Bft) O-NO 67 0 min 4,9 C 23,2 km/h (4 Bft)
07.05.2016 13:05 20,6 C 22,4 C 36 % 1013,8 hPa 0,0 mm 11,3 km/h (2 Bft) NO 45 0 min 5,0 C 17,3 km/h (3 Bft)
07.05.2016 13:10 20,6 C 22,3 C 36 % 1013,8 hPa 0,0 mm 15,2 km/h (3 Bft) O-NO 67 0 min 5,0 C 30,1 km/h (5 Bft)
07.05.2016 13:15 20,9 C 23,0 C 36 % 1013,6 hPa 0,0 mm 14,6 km/h (3 Bft) O-NO 67 0 min 5,3 C 19,4 km/h (3 Bft)
07.05.2016 13:20 20,9 C 23,6 C 37 % 1013,6 hPa 0,0 mm 12,2 km/h (2 Bft) NO 45 0 min 5,7 C 6,6 km/h (2 Bft)
07.05.2016 13:25 20,9 C 24,5 C 36 % 1013,6 hPa 0,0 mm 11,6 km/h (2 Bft) O-NO 67 5 min 5,3 C 13,1 km/h (3 Bft)
07.05.2016 13:30 20,6 C 23,6 C 36 % 1013,6 hPa 0,0 mm 12,2 km/h (2 Bft) NO 45 0 min 5,0 C 23,8 km/h (4 Bft)
07.05.2016 13:35 20,8 C 23,6 C 37 % 1013,5 hPa 0,0 mm 14,9 km/h (3 Bft) N-NO 22 0 min 5,6 C 20,3 km/h (4 Bft)
07.05.2016 13:40 21,1 C 24,2 C 36 % 1013,5 hPa 0,0 mm 14,6 km/h (3 Bft) N 360 0 min 5,4 C 23,2 km/h (4 Bft)
07.05.2016 13:45 20,7 C 23,7 C 36 % 1013,5 hPa 0,0 mm 17,6 km/h (3 Bft) NO 45 5 min 5,1 C 22,4 km/h (4 Bft)
07.05.2016 13:50 20,8 C 23,5 C 37 % 1013,5 hPa 0,0 mm 16,1 km/h (3 Bft) O-NO 67 0 min 5,6 C 13,7 km/h (3 Bft)
07.05.2016 13:55 21,0 C 24,2 C 36 % 1013,2 hPa 0,0 mm 13,7 km/h (3 Bft) NO 45 0 min 5,4 C 25,9 km/h (4 Bft)
07.05.2016 14:00 20,9 C 24,3 C 36 % 1013,2 hPa 0,0 mm 15,2 km/h (3 Bft) O-NO 67 0 min 5,3 C 17,6 km/h (3 Bft)
07.05.2016 14:05 21,1 C 24,6 C 35 % 1013,2 hPa 0,0 mm 13,7 km/h (3 Bft) NO 45 0 min 5,0 C 14,3 km/h (3 Bft)
07.05.2016 14:10 21,2 C 24,8 C 36 % 1013,2 hPa 0,0 mm 11,3 km/h (2 Bft) O-NO 67 0 min 5,5 C 15,5 km/h (3 Bft)
07.05.2016 14:15 21,1 C 24,6 C 35 % 1013,2 hPa 0,0 mm 14,6 km/h (3 Bft) O-NO 67 0 min 5,0 C 23,5 km/h (4 Bft)
07.05.2016 14:20 21,2 C 24,3 C 36 % 1013,2 hPa 0,0 mm 14,6 km/h (3 Bft) O-SO 112 0 min 5,5 C 8,3 km/h (2 Bft)
07.05.2016 14:25 21,2 C 24,8 C 35 % 1013,2 hPa 0,0 mm 12,8 km/h (3 Bft) O-NO 67 0 min 5,1 C 27,1 km/h (4 Bft)
07.05.2016 14:30 20,9 C 24,2 C 35 % 1013,2 hPa 0,0 mm 14,6 km/h (3 Bft) O-NO 67 0 min 4,9 C 14,3 km/h (3 Bft)
07.05.2016 14:35 21,0 C 24,3 C 35 % 1013,0 hPa 0,0 mm 15,2 km/h (3 Bft) O-NO 67 0 min 5,0 C 7,2 km/h (2 Bft)
07.05.2016 14:40 21,2 C 24,7 C 36 % 1013,0 hPa 0,0 mm 11,6 km/h (2 Bft) N-NO 22 0 min 5,5 C 24,4 km/h (4 Bft)
07.05.2016 14:45 21,0 C 24,3 C 36 % 1013,0 hPa 0,0 mm 16,1 km/h (3 Bft) N 360 0 min 5,4 C 6,9 km/h (2 Bft)
07.05.2016 14:50 21,2 C 24,6 C 37 % 1013,0 hPa 0,0 mm 16,4 km/h (3 Bft) N-NO 22 0 min 5,9 C 18,8 km/h (3 Bft)
07.05.2016 14:55 21,0 C 24,3 C 36 % 1012,8 hPa 0,0 mm 14,3 km/h (3 Bft) N-NO 22 0 min 5,4 C 18,8 km/h (3 Bft)
07.05.2016 15:00 20,8 C 23,4 C 36 % 1012,8 hPa 0,0 mm 17,0 km/h (3 Bft) N-NW 337 0 min 5,2 C 7,5 km/h (2 Bft)
07.05.2016 15:05 20,8 C 22,9 C 36 % 1012,8 hPa 0,0 mm 13,7 km/h (3 Bft) NO 45 0 min 5,2 C 15,8 km/h (3 Bft)
07.05.2016 15:10 20,9 C 23,3 C 37 % 1012,8 hPa 0,0 mm 12,8 km/h (3 Bft) NO 45 0 min 5,7 C 3,3 km/h (1 Bft)
07.05.2016 15:15 21,2 C 24,1 C 36 % 1012,4 hPa 0,0 mm 16,1 km/h (3 Bft) O-NO 67 0 min 5,5 C 25,3 km/h (4 Bft)
07.05.2016 15:20 21,0 C 24,0 C 37 % 1012,4 hPa 0,0 mm 16,7 km/h (3 Bft) O-SO 112 0 min 5,8 C 25,6 km/h (4 Bft)
07.05.2016 15:25 21,1 C 24,0 C 36 % 1012,4 hPa 0,0 mm 18,8 km/h (3 Bft) N-NO 22 0 min 5,4 C 38,7 km/h (5 Bft)
07.05.2016 15:27 21,2 C 24,1 C 36 % 1012,4 hPa 0,0 mm 18,8 km/h (3 Bft) N-NO 22 0 min 5,5 C 26,5 km/h (4 Bft)
07.05.2016 15:29 21,2 C 24,1 C 36 % 1012,4 hPa 0,0 mm 18,8 km/h (3 Bft) N-NO 22 0 min 5,5 C 26,5 km/h (4 Bft)
07.05.2016 15:30 21,2 C 24,1 C 36 % 1012,4 hPa 0,0 mm 18,8 km/h (3 Bft) N-NO 22 0 min 5,5 C 26,5 km/h (4 Bft)
07.05.2016 15:35 21,2 C 24,0 C 36 % 1012,2 hPa 0,0 mm 16,1 km/h (3 Bft) O-SO 112 0 min 5,5 C 5,1 km/h (1 Bft)
07.05.2016 15:40 21,3 C 24,6 C 37 % 1012,2 hPa 0,0 mm 12,8 km/h (3 Bft) O-SO 112 0 min 6,0 C 16,7 km/h (3 Bft)
07.05.2016 15:45 21,1 C 24,4 C 36 % 1012,2 hPa 0,0 mm 14,9 km/h (3 Bft) O-NO 67 0 min 5,4 C 28,9 km/h (5 Bft)
07.05.2016 15:50 21,2 C 24,4 C 37 % 1012,2 hPa 0,0 mm 16,1 km/h (3 Bft) N-NO 22 0 min 5,9 C 14,0 km/h (3 Bft)
07.05.2016 15:55 21,2 C 24,7 C 37 % 1011,9 hPa 0,0 mm 14,3 km/h (3 Bft) NO 45 0 min 5,9 C 27,4 km/h (4 Bft)
07.05.2016 16:00 21,2 C 24,7 C 37 % 1011,9 hPa 0,0 mm 14,0 km/h (3 Bft) O-NO 67 5 min 5,9 C 17,0 km/h (3 Bft)
07.05.2016 16:05 21,1 C 24,8 C 36 % 1011,9 hPa 0,0 mm 15,5 km/h (3 Bft) O-NO 67 5 min 5,4 C 22,9 km/h (4 Bft)
07.05.2016 16:10 20,8 C 24,5 C 37 % 1011,9 hPa 0,0 mm 16,1 km/h (3 Bft) N-NO 22 5 min 5,6 C 17,3 km/h (3 Bft)
07.05.2016 16:15 21,0 C 24,9 C 36 % 1011,9 hPa 0,0 mm 14,0 km/h (3 Bft) O-NO 67 5 min 5,4 C 24,4 km/h (4 Bft)
07.05.2016 16:20 20,8 C 24,7 C 36 % 1011,9 hPa 0,0 mm 12,5 km/h (3 Bft) NO 45 5 min 5,2 C 20,0 km/h (4 Bft)
07.05.2016 16:25 20,8 C 24,7 C 36 % 1011,9 hPa 0,0 mm 15,8 km/h (3 Bft) NO 45 5 min 5,2 C 22,9 km/h (4 Bft)
07.05.2016 16:30 20,8 C 24,5 C 36 % 1011,9 hPa 0,0 mm 15,5 km/h (3 Bft) NO 45 5 min 5,2 C 13,1 km/h (3 Bft)
07.05.2016 16:35 20,5 C 23,9 C 36 % 1011,6 hPa 0,0 mm 15,2 km/h (3 Bft) O-NO 67 5 min 4,9 C 20,0 km/h (4 Bft)
07.05.2016 16:40 20,5 C 23,9 C 36 % 1011,6 hPa 0,0 mm 15,5 km/h (3 Bft) O-NO 67 5 min 4,9 C 21,8 km/h (4 Bft)
07.05.2016 16:45 20,5 C 24,0 C 36 % 1011,6 hPa 0,0 mm 15,2 km/h (3 Bft) N-NW 337 5 min 4,9 C 6,9 km/h (2 Bft)
07.05.2016 16:50 20,5 C 23,5 C 36 % 1011,6 hPa 0,0 mm 14,0 km/h (3 Bft) N-NO 22 5 min 4,9 C 14,6 km/h (3 Bft)
07.05.2016 16:55 20,6 C 22,7 C 36 % 1011,5 hPa 0,0 mm 14,3 km/h (3 Bft) N-NO 22 0 min 5,0 C 31,6 km/h (5 Bft)
07.05.2016 17:00 20,6 C 22,3 C 36 % 1011,5 hPa 0,0 mm 15,5 km/h (3 Bft) N-NO 22 0 min 5,0 C 10,7 km/h (2 Bft)
07.05.2016 17:05 20,5 C 22,1 C 36 % 1011,5 hPa 0,0 mm 16,4 km/h (3 Bft) O-SO 112 0 min 4,9 C 13,7 km/h (3 Bft)
07.05.2016 17:10 20,6 C 22,2 C 36 % 1011,5 hPa 0,0 mm 15,5 km/h (3 Bft) O-NO 67 0 min 5,0 C 28,6 km/h (4 Bft)
07.05.2016 17:15 20,5 C 21,8 C 36 % 1011,2 hPa 0,0 mm 17,3 km/h (3 Bft) O 90 0 min 4,9 C 27,4 km/h (4 Bft)
07.05.2016 17:20 20,4 C 21,6 C 36 % 1011,2 hPa 0,0 mm 18,2 km/h (3 Bft) O 90 0 min 4,8 C 23,8 km/h (4 Bft)
07.05.2016 17:25 20,4 C 21,5 C 37 % 1011,2 hPa 0,0 mm 15,8 km/h (3 Bft) NO 45 0 min 5,2 C 21,8 km/h (4 Bft)
07.05.2016 17:30 20,3 C 21,6 C 37 % 1011,2 hPa 0,0 mm 12,8 km/h (3 Bft) O-NO 67 0 min 5,1 C 27,4 km/h (4 Bft)
07.05.2016 17:35 20,3 C 21,4 C 37 % 1011,3 hPa 0,0 mm 14,3 km/h (3 Bft) N-NW 337 0 min 5,1 C 18,8 km/h (3 Bft)
07.05.2016 17:40 20,2 C 21,2 C 36 % 1011,3 hPa 0,0 mm 16,4 km/h (3 Bft) NO 45 0 min 4,7 C 22,7 km/h (4 Bft)
07.05.2016 17:45 20,2 C 21,2 C 37 % 1011,3 hPa 0,0 mm 14,3 km/h (3 Bft) NO 45 0 min 5,0 C 25,0 km/h (4 Bft)
07.05.2016 17:50 20,2 C 21,2 C 37 % 1011,3 hPa 0,0 mm 14,3 km/h (3 Bft) NO 45 0 min 5,0 C 11,9 km/h (2 Bft)
07.05.2016 17:55 20,2 C 21,2 C 37 % 1011,1 hPa 0,0 mm 17,6 km/h (3 Bft) N-NO 22 0 min 5,0 C 15,8 km/h (3 Bft)
07.05.2016 18:00 20,2 C 21,2 C 37 % 1011,1 hPa 0,0 mm 16,1 km/h (3 Bft) N-NO 22 0 min 5,0 C 18,8 km/h (3 Bft)
07.05.2016 18:05 20,1 C 21,0 C 37 % 1011,1 hPa 0,0 mm 14,0 km/h (3 Bft) O-NO 67 0 min 5,0 C 17,0 km/h (3 Bft)
07.05.2016 18:10 20,0 C 21,0 C 37 % 1011,1 hPa 0,0 mm 13,4 km/h (3 Bft) O-SO 112 0 min 4,9 C 21,8 km/h (4 Bft)
07.05.2016 18:15 19,9 C 20,9 C 37 % 1011,1 hPa 0,0 mm 11,9 km/h (2 Bft) SO 135 0 min 4,8 C 8,9 km/h (2 Bft)
07.05.2016 18:20 19,8 C 21,2 C 37 % 1011,1 hPa 0,0 mm 10,4 km/h (2 Bft) N-NO 22 0 min 4,7 C 15,5 km/h (3 Bft)
07.05.2016 18:25 19,8 C 21,7 C 37 % 1011,1 hPa 0,0 mm 14,0 km/h (3 Bft) NO 45 0 min 4,7 C 20,9 km/h (4 Bft)
07.05.2016 18:27 19,8 C 21,4 C 37 % 1011,1 hPa 0,0 mm 16,4 km/h (3 Bft) NO 45 0 min 4,7 C 11,0 km/h (2 Bft)
07.05.2016 18:30 19,8 C 21,4 C 37 % 1011,1 hPa 0,0 mm 16,4 km/h (3 Bft) NO 45 0 min 4,7 C 11,0 km/h (2 Bft)
07.05.2016 18:35 19,7 C 21,2 C 38 % 1010,9 hPa 0,0 mm 11,9 km/h (2 Bft) N-NO 22 0 min 5,0 C 20,0 km/h (4 Bft)
07.05.2016 18:40 19,7 C 21,4 C 38 % 1010,9 hPa 0,0 mm 8,9 km/h (2 Bft) O-SO 112 0 min 5,0 C 9,8 km/h (2 Bft)
07.05.2016 18:45 19,6 C 21,5 C 38 % 1010,9 hPa 0,0 mm 13,1 km/h (3 Bft) NO 45 0 min 4,9 C 28,0 km/h (4 Bft)
07.05.2016 18:50 19,6 C 21,3 C 38 % 1010,9 hPa 0,0 mm 15,5 km/h (3 Bft) O-NO 67 0 min 4,9 C 14,0 km/h (3 Bft)
07.05.2016 18:55 19,3 C 21,2 C 39 % 1011,1 hPa 0,0 mm 15,5 km/h (3 Bft) O 90 0 min 5,0 C 14,0 km/h (3 Bft)
07.05.2016 19:00 18,8 C 20,4 C 39 % 1011,1 hPa 0,0 mm 12,8 km/h (3 Bft) O-NO 67 0 min 4,6 C 25,6 km/h (4 Bft)
07.05.2016 19:05 18,9 C 19,8 C 39 % 1011,1 hPa 0,0 mm 11,6 km/h (2 Bft) S-SO 157 0 min 4,6 C 9,5 km/h (2 Bft)
07.05.2016 19:10 18,9 C 19,9 C 39 % 1011,1 hPa 0,0 mm 14,3 km/h (3 Bft) O 90 0 min 4,6 C 15,5 km/h (3 Bft)
07.05.2016 19:15 18,8 C 20,4 C 39 % 1011,2 hPa 0,0 mm 16,1 km/h (3 Bft) N 360 0 min 4,6 C 17,0 km/h (3 Bft)
07.05.2016 19:20 18,8 C 20,6 C 40 % 1011,2 hPa 0,0 mm 14,9 km/h (3 Bft) N 360 0 min 4,9 C 9,8 km/h (2 Bft)
07.05.2016 19:25 18,7 C 20,8 C 40 % 1011,2 hPa 0,0 mm 15,5 km/h (3 Bft) NO 45 0 min 4,8 C 28,0 km/h (4 Bft)
07.05.2016 19:30 18,6 C 20,6 C 40 % 1011,2 hPa 0,0 mm 16,4 km/h (3 Bft) NO 45 0 min 4,7 C 24,7 km/h (4 Bft)
07.05.2016 19:35 18,4 C 20,4 C 40 % 1011,2 hPa 0,0 mm 16,4 km/h (3 Bft) NO 45 0 min 4,6 C 8,9 km/h (2 Bft)
07.05.2016 19:40 18,2 C 20,2 C 41 % 1011,2 hPa 0,0 mm 14,3 km/h (3 Bft) O-NO 67 0 min 4,7 C 7,7 km/h (2 Bft)
07.05.2016 19:45 18,0 C 20,0 C 41 % 1011,2 hPa 0,0 mm 11,9 km/h (2 Bft) NO 45 0 min 4,6 C 16,7 km/h (3 Bft)
07.05.2016 19:50 17,7 C 19,6 C 41 % 1011,2 hPa 0,0 mm 13,4 km/h (3 Bft) O-NO 67 0 min 4,3 C 21,5 km/h (4 Bft)
07.05.2016 19:55 17,5 C 18,9 C 42 % 1011,2 hPa 0,0 mm 12,8 km/h (3 Bft) NO 45 0 min 4,4 C 13,7 km/h (3 Bft)
07.05.2016 20:00 17,2 C 18,8 C 43 % 1011,2 hPa 0,0 mm 10,4 km/h (2 Bft) O 90 0 min 4,5 C 5,4 km/h (1 Bft)
07.05.2016 20:05 16,8 C 18,5 C 43 % 1011,2 hPa 0,0 mm 7,7 km/h (2 Bft) NO 45 0 min 4,2 C 9,5 km/h (2 Bft)
07.05.2016 20:10 16,6 C 18,2 C 44 % 1011,2 hPa 0,0 mm 6,3 km/h (2 Bft) O-NO 67 0 min 4,3 C 5,7 km/h (1 Bft)
07.05.2016 20:15 16,2 C 17,6 C 45 % 1011,2 hPa 0,0 mm 6,0 km/h (2 Bft) NO 45 0 min 4,3 C 8,9 km/h (2 Bft)
07.05.2016 20:20 16,2 C 17,3 C 45 % 1011,2 hPa 0,0 mm 5,4 km/h (1 Bft) O-NO 67 0 min 4,3 C 3,9 km/h (1 Bft)
07.05.2016 20:25 15,8 C 16,4 C 45 % 1011,2 hPa 0,0 mm 6,0 km/h (2 Bft) NO 45 0 min 3,9 C 3,9 km/h (1 Bft)
07.05.2016 20:30 15,5 C 16,0 C 46 % 1011,2 hPa 0,0 mm 5,4 km/h (1 Bft) O-NO 67 0 min 3,9 C 8,3 km/h (2 Bft)
07.05.2016 20:35 15,2 C 15,4 C 47 % 1011,2 hPa 0,0 mm 4,8 km/h (1 Bft) O-NO 67 0 min 4,0 C 8,9 km/h (2 Bft)
07.05.2016 20:40 15,0 C 15,0 C 47 % 1011,2 hPa 0,0 mm 5,1 km/h (1 Bft) O-NO 67 0 min 3,8 C 8,0 km/h (2 Bft)
07.05.2016 20:45 14,6 C 14,6 C 47 % 1011,2 hPa 0,0 mm 3,9 km/h (1 Bft) SO 135 0 min 3,4 C 3,9 km/h (1 Bft)
07.05.2016 20:50 14,3 C 14,3 C 47 % 1011,2 hPa 0,0 mm 2,4 km/h (1 Bft) W-SW 247 0 min 3,1 C 0,0 km/h (0 Bft)
07.05.2016 20:55 14,2 C 14,0 C 48 % 1011,5 hPa 0,0 mm 2,1 km/h (1 Bft) SO 135 0 min 3,4 C 6,3 km/h (2 Bft)
07.05.2016 21:00 13,9 C 13,8 C 48 % 1011,5 hPa 0,0 mm 1,5 km/h (1 Bft) N 360 0 min 3,1 C 3,0 km/h (1 Bft)
07.05.2016 21:05 13,5 C 13,4 C 49 % 1011,5 hPa 0,0 mm 1,2 km/h (1 Bft) NO 45 0 min 3,0 C 0,0 km/h (0 Bft)
07.05.2016 21:10 13,5 C 13,3 C 50 % 1011,5 hPa 0,0 mm 0,6 km/h (0 Bft) S-SO 157 0 min 3,3 C 0,0 km/h (0 Bft)
07.05.2016 21:15 13,2 C 13,0 C 50 % 1011,5 hPa 0,0 mm 0,6 km/h (0 Bft) N-NW 337 0 min 3,0 C 0,0 km/h (0 Bft)
07.05.2016 21:20 13,2 C 13,0 C 50 % 1011,5 hPa 0,0 mm 0,6 km/h (0 Bft) S-SO 157 0 min 3,0 C 0,0 km/h (0 Bft)
07.05.2016 21:25 13,1 C 12,8 C 50 % 1011,5 hPa 0,0 mm 0,3 km/h (0 Bft) O-SO 112 0 min 2,9 C 3,3 km/h (1 Bft)
07.05.2016 21:27 13,2 C 12,9 C 51 % 1011,5 hPa 0,0 mm 0,3 km/h (0 Bft) SO 135 0 min 3,3 C 6,3 km/h (2 Bft)
07.05.2016 21:31 13,2 C 12,9 C 51 % 1011,5 hPa 0,0 mm 0,3 km/h (0 Bft) SO 135 0 min 3,3 C 6,3 km/h (2 Bft)
07.05.2016 21:35 13,4 C 13,0 C 51 % 1011,6 hPa 0,0 mm 0,9 km/h (0 Bft) SO 135 0 min 3,5 C 0,0 km/h (0 Bft)
07.05.2016 21:40 13,3 C 12,9 C 52 % 1011,6 hPa 0,0 mm 1,8 km/h (1 Bft) S-SO 157 0 min 3,7 C 3,6 km/h (1 Bft)
07.05.2016 21:45 12,9 C 12,7 C 54 % 1011,6 hPa 0,0 mm 2,1 km/h (1 Bft) SO 135 0 min 3,8 C 0,0 km/h (0 Bft)
07.05.2016 21:50 12,9 C 12,7 C 54 % 1011,6 hPa 0,0 mm 2,7 km/h (1 Bft) S-SO 157 0 min 3,8 C 4,2 km/h (1 Bft)
07.05.2016 21:55 12,9 C 12,7 C 55 % 1011,7 hPa 0,0 mm 2,1 km/h (1 Bft) S 180 0 min 4,1 C 3,3 km/h (1 Bft)
07.05.2016 22:00 12,7 C 12,5 C 56 % 1011,7 hPa 0,0 mm 2,1 km/h (1 Bft) SO 135 0 min 4,2 C 3,3 km/h (1 Bft)
07.05.2016 22:05 12,3 C 12,3 C 56 % 1011,7 hPa 0,0 mm 1,5 km/h (1 Bft) O-SO 112 0 min 3,8 C 0,0 km/h (0 Bft)
07.05.2016 22:10 11,5 C 11,6 C 56 % 1011,7 hPa 0,0 mm 0,6 km/h (0 Bft) O-SO 112 0 min 3,0 C 0,0 km/h (0 Bft)
07.05.2016 22:15 11,7 C 11,7 C 57 % 1011,8 hPa 0,0 mm 0,3 km/h (0 Bft) SO 135 0 min 3,5 C 3,9 km/h (1 Bft)
07.05.2016 22:20 11,4 C 11,2 C 57 % 1011,8 hPa 0,0 mm 0,3 km/h (0 Bft) O-SO 112 0 min 3,2 C 0,0 km/h (0 Bft)
07.05.2016 22:25 10,5 C 10,5 C 58 % 1011,8 hPa 0,0 mm 0,0 km/h (0 Bft) O-NO 67 0 min 2,6 C 0,0 km/h (0 Bft)
07.05.2016 22:30 10,6 C 10,4 C 61 % 1011,8 hPa 0,0 mm 0,0 km/h (0 Bft) O-NO 67 0 min 3,4 C 0,0 km/h (0 Bft)
07.05.2016 22:35 11,1 C 10,8 C 59 % 1011,7 hPa 0,0 mm 0,0 km/h (0 Bft) O 90 0 min 3,4 C 0,0 km/h (0 Bft)
07.05.2016 22:40 11,3 C 10,9 C 59 % 1011,7 hPa 0,0 mm 0,3 km/h (0 Bft) SO 135 0 min 3,6 C 0,0 km/h (0 Bft)
07.05.2016 22:45 10,3 C 10,1 C 60 % 1011,7 hPa 0,0 mm 0,3 km/h (0 Bft) S-SO 157 0 min 2,9 C 0,0 km/h (0 Bft)
07.05.2016 22:50 10,3 C 10,6 C 60 % 1011,7 hPa 0,0 mm 0,0 km/h (0 Bft) SO 135 0 min 2,9 C 0,0 km/h (0 Bft)
07.05.2016 22:55 10,6 C 10,8 C 61 % 1011,6 hPa 0,0 mm 0,0 km/h (0 Bft) SO 135 0 min 3,4 C 0,0 km/h (0 Bft)
07.05.2016 23:00 10,6 C 10,8 C 61 % 1011,6 hPa 0,0 mm 0,0 km/h (0 Bft) SO 135 0 min 3,4 C 0,0 km/h (0 Bft)
07.05.2016 23:05 9,9 C 10,0 C 61 % 1011,6 hPa 0,0 mm 0,9 km/h (0 Bft) O-SO 112 0 min 2,7 C 0,0 km/h (0 Bft)
07.05.2016 23:10 9,4 C 9,6 C 63 % 1011,6 hPa 0,0 mm 0,9 km/h (0 Bft) S 180 0 min 2,7 C 0,0 km/h (0 Bft)
07.05.2016 23:15 9,0 C 8,9 C 65 % 1011,5 hPa 0,0 mm 0,0 km/h (0 Bft) S-SO 157 0 min 2,8 C 0,0 km/h (0 Bft)
07.05.2016 23:20 8,7 C 8,6 C 66 % 1011,5 hPa 0,0 mm 0,0 km/h (0 Bft) O-SO 112 0 min 2,7 C 0,0 km/h (0 Bft)
07.05.2016 23:25 8,8 C 8,6 C 63 % 1011,5 hPa 0,0 mm 0,0 km/h (0 Bft) O 90 0 min 2,2 C 0,0 km/h (0 Bft)
07.05.2016 23:30 8,4 C 8,2 C 66 % 1011,5 hPa 0,0 mm 0,0 km/h (0 Bft) SO 135 0 min 2,4 C 0,0 km/h (0 Bft)
07.05.2016 23:35 8,5 C 8,4 C 64 % 1011,6 hPa 0,0 mm 0,3 km/h (0 Bft) O-SO 112 0 min 2,1 C 0,0 km/h (0 Bft)
07.05.2016 23:40 8,2 C 8,0 C 67 % 1011,6 hPa 0,0 mm 0,3 km/h (0 Bft) N-NO 22 0 min 2,4 C 0,0 km/h (0 Bft)
07.05.2016 23:45 7,9 C 7,7 C 69 % 1011,6 hPa 0,0 mm 0,0 km/h (0 Bft) O-NO 67 0 min 2,6 C 0,0 km/h (0 Bft)
07.05.2016 23:50 7,8 C 7,5 C 70 % 1011,6 hPa 0,0 mm 0,0 km/h (0 Bft) SO 135 0 min 2,7 C 0,0 km/h (0 Bft)
07.05.2016 23:55 8,5 C 8,1 C 70 % 1011,8 hPa 0,0 mm 0,3 km/h (0 Bft) N-NW 337 0 min 3,3 C 3,0 km/h (1 Bft)
_ Min-Zeit 05:35 05:35 14:35 18:50 - 23:50 - - - 05:35 23:50
Minimum _ 3,3 C 3,1 C 35 % 1010,9 hPa - 0,0 km/h (0 Bft) - - - 0,4 C 0,0 km/h (0 Bft)
_ Max-Zeit 15:40 08:30 04:45 11:30 23:55 15:30 - - 16:50 08:45 15:25
Maximum _ 21,3 C 25,4 C 83 % 1014,4 hPa 0,0 mm 18,8 km/h
N-NO (3 Bft)
- - 5 min 7,9 C 38,7 km/h
N-NO (5 Bft)
Durchschnitt _ 13,6 C 15,8 C 55 % 1012,8 hPa #0,0 mm 6,2 km/h (2 Bft) NO - #6:34 h 3,9 C 8,5 km/h (2 Bft)